TimeCDT,TemperatureF,Dew PointF,Humidity,Sea Level PressureIn,VisibilityMPH,Wind Direction,Wind SpeedMPH,Gust SpeedMPH,PrecipitationIn,Events,Conditions,WindDirDegrees,DateUTC
12:14 AM,42.8,41.0,93,29.77,4.0,Calm,Calm,-,N/A,,Clear,0,2012-10-14 05:14:00
12:34 AM,42.8,41.0,93,29.77,3.0,Calm,Calm,-,N/A,,Mist,0,2012-10-14 05:34:00
12:53 AM,39.2,39.2,100,29.76,0.2,Calm,Calm,-,N/A,Fog,Fog,0,2012-10-14 05:53:00
1:14 AM,37.4,37.4,100,29.77,5.0,Calm,Calm,-,N/A,,Scattered Clouds,0,2012-10-14 06:14:00
1:33 AM,35.6,35.6,100,29.77,2.0,Calm,Calm,-,N/A,,Overcast,0,2012-10-14 06:33:00
1:53 AM,37.4,37.4,100,29.78,0.5,Calm,Calm,-,N/A,Fog,Fog,0,2012-10-14 06:53:00
2:34 AM,39.2,39.2,100,29.78,3.0,Calm,Calm,-,N/A,,Overcast,0,2012-10-14 07:34:00
2:53 AM,41.0,41.0,100,29.78,4.0,Calm,Calm,-,N/A,,Overcast,0,2012-10-14 07:53:00
3:14 AM,41.0,41.0,100,29.79,4.0,Calm,Calm,-,N/A,,Overcast,0,2012-10-14 08:14:00
3:34 AM,42.8,41.0,93,29.79,4.0,North,3.5,-,N/A,,Overcast,10,2012-10-14 08:34:00
3:53 AM,42.8,41.0,93,29.79,4.0,Calm,Calm,-,N/A,,Overcast,0,2012-10-14 08:53:00
4:14 AM,42.8,41.0,93,29.80,5.0,Calm,Calm,-,N/A,,Overcast,0,2012-10-14 09:14:00
4:33 AM,42.8,41.0,93,29.80,5.0,Calm,Calm,-,N/A,,Overcast,0,2012-10-14 09:33:00
4:54 AM,42.8,41.0,93,29.81,5.0,Calm,Calm,-,N/A,,Overcast,0,2012-10-14 09:54:00
5:13 AM,42.8,41.0,93,29.80,5.0,NW,3.5,-,N/A,,Overcast,320,2012-10-14 10:13:00
5:33 AM,42.8,41.0,93,29.81,5.0,NNE,3.5,-,N/A,,Overcast,20,2012-10-14 10:33:00
5:54 AM,42.8,41.0,93,29.82,5.0,North,4.6,-,N/A,,Overcast,360,2012-10-14 10:54:00
6:13 AM,42.8,41.0,93,29.82,5.0,North,6.9,-,N/A,,Overcast,360,2012-10-14 11:13:00
6:34 AM,42.8,41.0,93,29.82,4.0,North,3.5,-,N/A,,Overcast,10,2012-10-14 11:34:00
6:53 AM,42.8,41.0,93,29.82,4.0,North,4.6,-,N/A,,Overcast,360,2012-10-14 11:53:00
7:13 AM,42.8,41.0,93,29.82,5.0,NW,4.6,-,N/A,,Overcast,320,2012-10-14 12:13:00
7:34 AM,42.8,41.0,93,29.83,5.0,NNW,5.8,-,N/A,,Overcast,330,2012-10-14 12:34:00
7:53 AM,42.8,41.0,93,29.83,5.0,NNW,4.6,-,N/A,,Overcast,330,2012-10-14 12:53:00
8:13 AM,42.8,41.0,93,29.83,5.0,North,4.6,-,N/A,,Overcast,350,2012-10-14 13:13:00
8:34 AM,42.8,41.0,93,29.84,4.0,North,5.8,-,N/A,,Overcast,350,2012-10-14 13:34:00
8:53 AM,42.8,41.0,93,29.84,4.0,North,5.8,-,N/A,,Overcast,360,2012-10-14 13:53:00
9:13 AM,42.8,41.0,93,29.84,5.0,North,5.8,-,N/A,,Overcast,350,2012-10-14 14:13:00
9:34 AM,44.6,42.8,93,29.84,5.0,North,6.9,-,N/A,,Overcast,350,2012-10-14 14:34:00
9:53 AM,44.6,42.8,93,29.84,7.0,NNW,6.9,-,N/A,,Overcast,340,2012-10-14 14:53:00
10:13 AM,44.6,41.0,87,29.85,7.0,North,6.9,-,N/A,,Overcast,360,2012-10-14 15:13:00
10:34 AM,46.4,41.0,81,29.86,7.0,North,8.1,-,N/A,,Overcast,10,2012-10-14 15:34:00
10:53 AM,46.4,41.0,81,29.86,7.0,North,4.6,-,N/A,,Overcast,10,2012-10-14 15:53:00
11:13 AM,46.4,41.0,81,29.86,10.0,North,8.1,-,N/A,,Overcast,10,2012-10-14 16:13:00
11:34 AM,48.2,41.0,76,29.86,10.0,North,9.2,-,N/A,,Overcast,350,2012-10-14 16:34:00
11:53 AM,48.2,39.2,71,29.85,10.0,North,8.1,-,N/A,,Overcast,10,2012-10-14 16:53:00
12:13 PM,50.0,39.2,66,29.85,10.0,North,10.4,-,N/A,,Overcast,350,2012-10-14 17:13:00
12:34 PM,51.8,39.2,62,29.85,10.0,North,11.5,-,N/A,,Overcast,360,2012-10-14 17:34:00
12:53 PM,51.8,37.4,58,29.84,10.0,North,9.2,-,N/A,,Overcast,10,2012-10-14 17:53:00
1:14 PM,53.6,37.4,54,29.83,10.0,North,11.5,-,N/A,,Mostly Cloudy,350,2012-10-14 18:14:00
1:34 PM,53.6,37.4,54,29.83,10.0,North,6.9,-,N/A,,Scattered Clouds,360,2012-10-14 18:34:00
1:53 PM,53.6,37.4,54,29.83,10.0,North,9.2,-,N/A,,Mostly Cloudy,360,2012-10-14 18:53:00
2:13 PM,53.6,37.4,54,29.83,10.0,North,11.5,-,N/A,,Overcast,360,2012-10-14 19:13:00
2:34 PM,53.6,37.4,54,29.83,10.0,NNW,10.4,-,N/A,,Overcast,340,2012-10-14 19:34:00
2:53 PM,55.4,37.4,51,29.83,10.0,NW,12.7,-,N/A,,Overcast,320,2012-10-14 19:53:00
3:14 PM,55.4,37.4,51,29.83,10.0,NNW,10.4,-,N/A,,Overcast,340,2012-10-14 20:14:00
3:33 PM,55.4,37.4,51,29.83,10.0,NNW,10.4,-,N/A,,Mostly Cloudy,340,2012-10-14 20:33:00
3:53 PM,55.4,37.4,51,29.83,10.0,NNW,11.5,-,N/A,,Mostly Cloudy,340,2012-10-14 20:53:00
4:14 PM,55.4,37.4,51,29.83,10.0,NNW,10.4,-,N/A,,Overcast,330,2012-10-14 21:14:00
4:33 PM,55.4,37.4,51,29.83,10.0,NW,9.2,-,N/A,,Overcast,310,2012-10-14 21:33:00
4:53 PM,55.4,37.4,51,29.83,10.0,WNW,12.7,-,N/A,,Overcast,290,2012-10-14 21:53:00
5:14 PM,55.4,35.6,47,29.84,10.0,WNW,11.5,-,N/A,,Overcast,300,2012-10-14 22:14:00
5:33 PM,55.4,35.6,47,29.84,10.0,NW,6.9,10.4,N/A,,Mostly Cloudy,310,2012-10-14 22:33:00
5:53 PM,53.6,32.0,44,29.85,10.0,NW,9.2,-,N/A,,Scattered Clouds,310,2012-10-14 22:53:00
6:13 PM,51.8,30.2,44,29.85,10.0,WNW,12.7,18.4,N/A,,Scattered Clouds,300,2012-10-14 23:13:00
6:33 PM,50.0,30.2,47,29.86,10.0,WNW,11.5,-,N/A,,Clear,300,2012-10-14 23:33:00
6:54 PM,48.2,32.0,54,29.86,10.0,WNW,9.2,-,N/A,,Clear,300,2012-10-14 23:54:00
7:13 PM,48.2,32.0,54,29.86,10.0,WNW,8.1,-,N/A,,Clear,300,2012-10-15 00:13:00
7:33 PM,46.4,32.0,57,29.87,10.0,WNW,8.1,-,N/A,,Clear,300,2012-10-15 00:33:00
7:54 PM,44.6,30.2,57,29.88,10.0,WNW,5.8,-,N/A,,Clear,300,2012-10-15 00:54:00
8:13 PM,44.6,32.0,61,29.88,10.0,WNW,8.1,-,N/A,,Clear,300,2012-10-15 01:13:00
8:33 PM,42.8,32.0,66,29.88,10.0,WNW,6.9,-,N/A,,Clear,300,2012-10-15 01:33:00
8:54 PM,42.8,32.0,66,29.89,10.0,WNW,6.9,-,N/A,,Clear,300,2012-10-15 01:54:00
9:13 PM,39.2,32.0,75,29.89,10.0,WNW,6.9,-,N/A,,Clear,300,2012-10-15 02:13:00
9:33 PM,39.2,32.0,75,29.90,10.0,WNW,5.8,-,N/A,,Clear,290,2012-10-15 02:33:00
9:54 PM,39.2,32.0,75,29.90,10.0,WNW,5.8,-,N/A,,Clear,300,2012-10-15 02:54:00
10:13 PM,37.4,32.0,81,29.90,10.0,WNW,5.8,-,N/A,,Clear,290,2012-10-15 03:13:00
10:33 PM,37.4,32.0,81,29.90,10.0,WNW,4.6,-,N/A,,Clear,300,2012-10-15 03:33:00
10:53 PM,37.4,32.0,81,29.90,10.0,WNW,4.6,-,N/A,,Clear,300,2012-10-15 03:53:00
11:13 PM,37.4,32.0,81,29.90,10.0,Calm,Calm,-,N/A,,Clear,0,2012-10-15 04:13:00
11:34 PM,33.8,30.2,87,29.91,10.0,WNW,5.8,-,N/A,,Clear,290,2012-10-15 04:34:00
11:53 PM,33.8,30.2,87,29.91,10.0,WNW,3.5,-,N/A,,Clear,300,2012-10-15 04:53:00